Location: Bidwell Hollow
(37.7387°N, 90.1707°W)
Time: 10:35:47
(UTC+00:00)

Injun/Solrad 3 - Visible Passes

Search period start: 15 May 2026 00:00
Search period end: 25 May 2026 00:00
Orbit: 868 x 988 km, 66.8° (Epoch: 14 May)

Date Brightness Start Highest point End Pass type
(mag) Time Alt. Az. Time Alt. Az. Time Alt. Az.
15 May 9.4 05:35:21 10° N 05:40:54 29° NE 05:42:23 27° ENE visible
15 May 8.7 07:21:27 10° NW 07:25:58 41° WNW 07:25:58 41° WNW visible
16 May 8.8 05:46:04 10° NNW 05:52:10 42° NE 05:52:38 42° ENE visible
16 May 9.3 07:32:52 10° NW 07:36:13 26° WNW 07:36:13 26° WNW visible
17 May 10.3 04:12:41 10° NNE 04:15:31 13° NE 04:18:21 10° ENE visible
17 May 8.3 05:56:55 10° NNW 06:02:58 62° NE 06:02:58 62° NE visible
17 May 9.8 07:44:41 10° WNW 07:46:34 16° WNW 07:46:34 16° WNW visible
18 May 10.0 04:22:42 10° N 04:27:03 18° NE 04:29:45 15° ENE visible
18 May 8.2 06:07:54 10° NNW 06:13:21 66° NNW 06:13:21 66° NNW visible
19 May 9.5 04:33:09 10° N 04:38:28 26° NE 04:40:11 23° ENE visible
19 May 8.6 06:19:02 10° NW 06:23:48 46° WNW 06:23:48 46° WNW visible
20 May 8.9 04:43:49 10° NNW 04:49:46 38° NE 04:50:41 36° ENE visible
20 May 9.2 06:30:23 10° NW 06:34:17 31° WNW 06:34:17 31° WNW visible
21 May 10.3 03:10:54 10° NNE 03:12:59 12° NE 03:15:03 10° ENE visible
21 May 8.3 04:54:37 10° NNW 05:00:57 55° ENE 05:01:13 55° ENE visible
21 May 9.7 06:42:02 10° NW 06:44:50 20° WNW 06:44:50 20° WNW visible
22 May 10.0 03:20:37 10° N 03:24:34 16° NE 03:28:11 11° ENE visible
22 May 8.0 05:05:34 10° NNW 05:11:48 80° NNE 05:11:48 80° NNE visible
22 May 10.1 06:54:21 10° WNW 06:55:25 12° WNW 06:55:25 12° WNW visible
23 May 9.6 03:30:59 10° N 03:36:01 23° NE 03:38:48 18° E visible
23 May 8.2 05:16:39 10° NNW 05:22:25 63° W 05:22:25 63° W visible
24 May 9.1 03:41:35 10° N 03:47:21 33° NE 03:49:27 27° E visible
24 May 8.8 05:27:55 10° NW 05:33:04 41° W 05:33:04 41° W visible
